Weather History for Ponca City, OK

Change the Weather History Date:

Wednesday, March 20, 2013

  Actual Average Record
Temperature  
Mean Temperature 39 °F -  
Max Temperature 51 °F 65 °F 87 °F (1953)
Min Temperature 27 °F 40 °F 15 °F (1965)
Degree Days  
Heating Degree Days 26    
Moisture  
Dew Point 21 °F    
Average Humidity 52    
Maximum Humidity 92    
Minimum Humidity 24    
Precipitation  
Precipitation 0.00 in - - ()
Sea Level Pressure  
Sea Level Pressure 30.28 in    
Wind  
Wind Speed 6 mph (ENE)    
Max Wind Speed 15 mph    
Max Gust Speed 24 mph    
Visibility 10 miles    
Events      
Averages and records for this station are not official NWS values.
T = Trace of Precipitation, MM = Missing Value Source: NWS Daily Summary

Daily Weather History Graph

Daily Weather History Graph

Search for Another Location

Airport:

Trip Planner

Search our weather history database for the weather conditions in past years. The results will help you decide how hot, cold, wet, or windy it might be!

Date:

Astronomy

Mar. 20, 2013 Rise Set
Actual Time 7:31 AM CDT 7:40 PM CDT
Civil Twilight 7:05 AM CDT 8:06 PM CDT
Nautical Twilight 6:35 AM CDT 8:36 PM CDT
Astronomical Twilight 6:05 AM CDT 9:07 PM CDT
Moon 1:24 PM CDT (3/20) 3:03 AM CDT (3/20)
Length of Visible Light 13h 00m
Length of Day
12h 08m
First Quarter, 59% of the Moon is Illuminated
Mar 20
First Quarter
Mar 27
Full
Apr 2
Last Quarter
Apr 10
New
Apr 18
First Quarter

Hourly Weather History & Observations

Time (CDT) Temp. Windchill Dew Point Humidity Pressure Visibility Wind Dir Wind Speed Gust Speed Precip Events Conditions
12:53 AM 36.0 °F 31.1 °F 28.0 °F 73% 30.29 in 10.0 mi NE 5.8 mph - N/A   Clear
1:53 AM 32.0 °F - 26.1 °F 79% 30.30 in 10.0 mi Calm Calm - N/A   Clear
2:53 AM 30.0 °F - 25.0 °F 82% 30.30 in 10.0 mi Calm Calm - N/A   Clear
3:53 AM 28.0 °F 24.2 °F 25.0 °F 88% 30.30 in 10.0 mi North 3.5 mph - N/A   Clear
4:53 AM 27.0 °F - 24.1 °F 89% 30.30 in 10.0 mi Calm Calm - N/A   Clear
5:53 AM 28.0 °F 20.0 °F 24.1 °F 85% 30.33 in 9.0 mi North 8.1 mph - N/A   Clear
6:53 AM 28.9 °F 21.9 °F 27.0 °F 92% 30.36 in 10.0 mi North 6.9 mph - N/A   Clear
7:53 AM 33.1 °F 23.9 °F 28.9 °F 85% 30.40 in 10.0 mi North 12.7 mph - N/A   Clear
8:53 AM 36.0 °F 26.7 °F 28.9 °F 76% 30.43 in 10.0 mi NE 15.0 mph - N/A   Partly Cloudy
9:53 AM 39.9 °F 31.8 °F 21.0 °F 47% 30.42 in 10.0 mi NE 15.0 mph - N/A   Clear
10:53 AM 43.0 °F 35.7 °F 17.1 °F 35% 30.40 in 10.0 mi NE 15.0 mph 24.2 mph N/A   Clear
11:53 AM 46.0 °F 40.6 °F 15.1 °F 29% 30.40 in 10.0 mi NE 11.5 mph - N/A   Clear
12:53 PM 48.0 °F - 12.9 °F 24% 30.39 in 10.0 mi ENE 8.1 mph - N/A   Clear
1:53 PM 48.9 °F - 17.1 °F 28% 30.35 in 10.0 mi NNE 6.9 mph - N/A   Clear
2:53 PM 50.0 °F - 17.1 °F 27% 30.29 in 10.0 mi Variable 5.8 mph - N/A   Clear
3:53 PM 51.1 °F - 18.0 °F 27% 30.24 in 10.0 mi Calm Calm - N/A   Clear
4:53 PM 51.1 °F - 19.0 °F 28% 30.21 in 10.0 mi Variable 4.6 mph - N/A   Clear
5:53 PM 51.1 °F - 19.0 °F 28% 30.17 in 10.0 mi SE 4.6 mph - N/A   Clear
6:53 PM 48.9 °F - 19.0 °F 31% 30.15 in 10.0 mi East 8.1 mph - N/A   Clear
7:53 PM 46.9 °F - 19.0 °F 33% 30.13 in 10.0 mi East 4.6 mph - N/A   Clear
8:53 PM 46.4 °F 41.9 °F 21.2 °F 37% 30.10 in 10.0 mi East 9.2 mph - N/A   Clear
10:53 PM 44.1 °F 37.1 °F 18.0 °F 35% 30.06 in 10.0 mi ESE 15.0 mph - N/A   Clear
11:53 PM 42.1 °F 34.5 °F 18.0 °F 38% 30.04 in 10.0 mi ESE 15.0 mph - N/A   Clear